Location: *
(2.7500°S, 66.6833°W)
Time: 00:38:24
(UTC+00:00)

Cosmos 972 - Pass Details

Date: 24 May 2024
Orbit: 711 x 1153 km, 75.8° (Epoch: 13 June)

Event Time Altitude Azimuth Distance (km) Brightness Sun altitude
Rises 23:01:35 0° 187° (S) 3,385 7.7 -9.8°
Reaches altitude 10° 23:04:06 10° 185° (S) 2,388 6.9 -10.4°
Maximum altitude 23:09:26 73° 101° (E) 787 4.4 -11.7°
Drops below altitude 10° 23:14:20 10° 16° (NNE) 2,201 6.9 -12.8°
Sets 23:16:35 0° 14° (NNE) 3,100 7.7 -13.3°
